| time (UTC) | temp F | wind direction | speed MPH | gust MPH | rain 1hr in | rain 24hr in | rain mn in | humidity % | barometer mb |
| 20260505054654 | 63 | 17 | 0.0 | 2.0 | 0.12 | 0.02 | 0.02 | 62 | 1005.5 |
| 20260505054152 | 64 | 311 | 2.0 | 3.0 | 0.00 | 0.00 | 0.00 | 55 | 1005.0 |
| 20260505053650 | 65 | 25 | 0.0 | 1.0 | 0.00 | 0.00 | 0.00 | 53 | 1005.1 |
| 20260505053146 | 65 | 15 | 1.0 | 2.0 | 0.00 | 0.00 | 0.00 | 51 | 1005.2 |
| 20260505052643 | 66 | 359 | 1.0 | 2.0 | 0.00 | 0.00 | 0.00 | 55 | 1005.4 |
| 20260505052140 | 66 | 354 | 3.0 | 6.0 | 0.00 | 0.00 | 0.00 | 54 | 1005.2 |
| 20260505051637 | 67 | 35 | 1.0 | 2.0 | 0.00 | 0.00 | 0.00 | 51 | 1005.4 |
| 20260505051136 | 69 | 348 | 2.0 | 4.0 | 0.00 | 0.00 | 0.00 | 44 | 1004.8 |
| 20260505050633 | 70 | 250 | 3.0 | 4.0 | 0.00 | 0.00 | 0.00 | 39 | 1004.7 |
| 20260505050131 | 70 | 11 | 3.0 | 4.0 | 0.00 | 0.00 | 0.00 | 43 | 1004.6 |
| 20260505041601 | 71 | 282 | 1.0 | 1.0 | 0.00 | 0.00 | 0.00 | 66 | 1003.6 |
| 20260505041058 | 71 | 11 | 0.0 | 1.0 | 0.00 | 0.00 | 0.00 | 66 | 1003.6 |
| 20260505040555 | 71 | 327 | 0.0 | 0.0 | 0.00 | 0.00 | 0.00 | 66 | 1003.6 |
| 20260505040052 | 71 | 172 | 2.0 | 3.0 | 0.00 | 0.00 | 0.00 | 66 | 1003.8 |
| 20260505035548 | 71 | 221 | 0.0 | 1.0 | 0.00 | 0.00 | 0.00 | 66 | 1003.8 |
| 20260505035045 | 71 | 11 | 0.0 | 1.0 | 0.00 | 0.00 | 0.00 | 66 | 1003.8 |
| 20260505034541 | 71 | 75 | 1.0 | 1.0 | 0.00 | 0.00 | 0.00 | 66 | 1003.9 |
| 20260505034038 | 71 | 340 | 0.0 | 0.0 | 0.00 | 0.00 | 0.00 | 66 | 1003.6 |
| 20260505033536 | 71 | 351 | 0.0 | 0.0 | 0.00 | 0.00 | 0.00 | 66 | 1003.9 |
| 20260505033034 | 71 | 23 | 1.0 | 2.0 | 0.00 | 0.00 | 0.00 | 66 | 1003.9 |
| 20260505032531 | 72 | 333 | 0.0 | 0.0 | 0.00 | 0.00 | 0.00 | 65 | 1003.9 |
| 20260505032027 | 72 | 284 | 2.0 | 2.0 | 0.00 | 0.00 | 0.00 | 64 | 1003.9 |
| 20260505031525 | 72 | 315 | 1.0 | 1.0 | 0.00 | 0.00 | 0.00 | 63 | 1003.7 |
| 20260505031021 | 72 | 354 | 0.0 | 0.0 | 0.00 | 0.00 | 0.00 | 63 | 1003.8 |
| 20260505030518 | 72 | 167 | 0.0 | 0.0 | 0.00 | 0.00 | 0.00 | 62 | 1003.6 |
| 20260505030014 | 72 | 192 | 1.0 | 2.0 | 0.00 | 0.00 | 0.00 | 62 | 1003.5 |
| 20260505025510 | 72 | 334 | 0.0 | 0.0 | 0.00 | 0.00 | 0.00 | 61 | 1003.5 |
| 20260505025009 | 72 | 18 | 0.0 | 1.0 | 0.00 | 0.00 | 0.00 | 61 | 1003.6 |
| 20260505024506 | 72 | 355 | 0.0 | 0.0 | 0.00 | 0.00 | 0.00 | 61 | 1003.6 |
| 20260505024003 | 72 | 331 | 0.0 | 0.0 | 0.00 | 0.00 | 0.00 | 60 | 1003.1 |
| 20260505023500 | 72 | 328 | 0.0 | 1.0 | 0.00 | 0.00 | 0.00 | 60 | 1003.3 |
| 20260505022957 | 72 | 345 | 0.0 | 0.0 | 0.00 | 0.00 | 0.00 | 60 | 1003.1 |
| 20260505022455 | 71 | 345 | 0.0 | 1.0 | 0.00 | 0.00 | 0.00 | 61 | 1003.0 |
| 20260505021952 | 71 | 352 | 0.0 | 0.0 | 0.00 | 0.00 | 0.00 | 60 | 1002.8 |
| 20260505021448 | 71 | 352 | 0.0 | 0.0 | 0.00 | 0.00 | 0.00 | 59 | 1002.8 |
| 20260505020944 | 71 | 352 | 0.0 | 0.0 | 0.00 | 0.00 | 0.00 | 58 | 1002.8 |
| 20260505020439 | 71 | 352 | 0.0 | 0.0 | 0.00 | 0.00 | 0.00 | 57 | 1002.7 |
| 20260505015936 | 71 | 352 | 0.0 | 0.0 | 0.00 | 0.00 | 0.00 | 56 | 1002.7 |
| 20260505015433 | 72 | 352 | 0.0 | 0.0 | 0.00 | 0.00 | 0.00 | 56 | 1002.8 |
| 20260505014931 | 72 | 351 | 0.0 | 0.0 | 0.00 | 0.00 | 0.00 | 55 | 1002.8 |
| 20260505014428 | 72 | 351 | 0.0 | 0.0 | 0.00 | 0.00 | 0.00 | 54 | 1002.6 |
| 20260505013925 | 72 | 351 | 0.0 | 0.0 | 0.00 | 0.00 | 0.00 | 54 | 1002.6 |
| 20260505013421 | 72 | 351 | 0.0 | 0.0 | 0.00 | 0.00 | 0.00 | 54 | 1002.4 |
| 20260505012919 | 73 | 351 | 0.0 | 0.0 | 0.00 | 0.00 | 0.00 | 53 | 1002.2 |
| 20260505012417 | 73 | 351 | 0.0 | 0.0 | 0.00 | 0.00 | 0.00 | 53 | 1002.4 |
| 20260505011913 | 74 | 352 | 0.0 | 0.0 | 0.00 | 0.00 | 0.00 | 52 | 1002.2 |
| 20260505011410 | 74 | 352 | 0.0 | 0.0 | 0.00 | 0.00 | 0.00 | 51 | 1002.3 |
| 20260505010906 | 75 | 352 | 0.0 | 0.0 | 0.00 | 0.00 | 0.00 | 51 | 1002.0 |
| 20260505010402 | 75 | 352 | 0.0 | 0.0 | 0.00 | 0.00 | 0.00 | 50 | 1002.0 |
| 20260505005858 | 76 | 352 | 0.0 | 0.0 | 0.00 | 0.00 | 0.00 | 49 | 1001.8 |
| 20260505005355 | 76 | 352 | 0.0 | 0.0 | 0.00 | 0.00 | 0.00 | 48 | 1001.8 |
| 20260505004853 | 77 | 352 | 0.0 | 0.0 | 0.00 | 0.00 | 0.00 | 47 | 1001.6 |
| 20260505004349 | 78 | 352 | 0.0 | 0.0 | 0.00 | 0.00 | 0.00 | 45 | 1001.8 |
| 20260505003846 | 78 | 353 | 0.0 | 0.0 | 0.00 | 0.00 | 0.00 | 45 | 1001.6 |
| 20260505003344 | 79 | 340 | 0.0 | 0.0 | 0.00 | 0.00 | 0.00 | 45 | 1001.6 |
| 20260505002839 | 79 | 343 | 0.0 | 0.0 | 0.00 | 0.00 | 0.00 | 45 | 1001.8 |
| 20260505002336 | 79 | 343 | 0.0 | 0.0 | 0.00 | 0.00 | 0.00 | 45 | 1001.6 |
| 20260505001835 | 80 | 344 | 0.0 | 0.0 | 0.00 | 0.00 | 0.00 | 45 | 1001.7 |
| 20260505001332 | 80 | 330 | 0.0 | 0.0 | 0.00 | 0.00 | 0.00 | 45 | 1001.7 |
| 20260505000829 | 79 | 330 | 0.0 | 0.0 | 0.00 | 0.00 | 0.00 | 43 | 1001.6 |
| 20260505000327 | 80 | 330 | 0.0 | 0.0 | 0.00 | 0.00 | 0.00 | 44 | 1001.6 |
| 20260504235823 | 80 | 330 | 0.0 | 0.0 | 0.00 | 0.00 | 0.00 | 43 | 1001.6 |
| 20260504235320 | 80 | 329 | 1.0 | 1.0 | 0.00 | 0.00 | 0.00 | 43 | 1001.8 |
| 20260504234817 | 80 | 340 | 0.0 | 0.0 | 0.00 | 0.00 | 0.00 | 43 | 1001.6 |
| 20260504234314 | 80 | 328 | 0.0 | 0.0 | 0.00 | 0.00 | 0.00 | 43 | 1001.9 |
| 20260504233811 | 80 | 333 | 0.0 | 0.0 | 0.00 | 0.00 | 0.00 | 43 | 1001.7 |
| 20260504233306 | 81 | 329 | 1.0 | 1.0 | 0.00 | 0.00 | 0.00 | 41 | 1001.5 |
| 20260504232803 | 81 | 337 | 0.0 | 0.0 | 0.00 | 0.00 | 0.00 | 41 | 1001.6 |
| 20260504232301 | 81 | 327 | 0.0 | 1.0 | 0.00 | 0.00 | 0.00 | 41 | 1001.7 |
| 20260504231757 | 81 | 142 | 1.0 | 2.0 | 0.00 | 0.00 | 0.00 | 42 | 1001.8 |
| 20260504231254 | 81 | 321 | 1.0 | 2.0 | 0.00 | 0.00 | 0.00 | 40 | 1001.9 |
| 20260504230750 | 81 | 353 | 1.0 | 1.0 | 0.00 | 0.00 | 0.00 | 41 | 1001.8 |
| 20260504230248 | 81 | 51 | 0.0 | 1.0 | 0.00 | 0.00 | 0.00 | 40 | 1001.8 |
| 20260504225747 | 81 | 334 | 0.0 | 1.0 | 0.00 | 0.00 | 0.00 | 41 | 1001.6 |
| 20260504225242 | 81 | 325 | 1.0 | 1.0 | 0.00 | 0.00 | 0.00 | 41 | 1001.4 |
| 20260504224740 | 82 | 232 | 2.0 | 3.0 | 0.00 | 0.00 | 0.00 | 41 | 1001.6 |
| 20260504224237 | 82 | 352 | 1.0 | 1.0 | 0.00 | 0.00 | 0.00 | 40 | 1001.8 |
| 20260504223733 | 82 | 257 | 2.0 | 3.0 | 0.00 | 0.00 | 0.00 | 40 | 1001.8 |
| 20260504223229 | 82 | 340 | 0.0 | 0.0 | 0.00 | 0.00 | 0.00 | 39 | 1001.7 |
| 20260504222726 | 83 | 305 | 1.0 | 2.0 | 0.00 | 0.00 | 0.00 | 38 | 1001.6 |
| 20260504222223 | 84 | 351 | 0.0 | 0.0 | 0.00 | 0.00 | 0.00 | 37 | 1001.6 |
| 20260504221720 | 84 | 336 | 1.0 | 2.0 | 0.00 | 0.00 | 0.00 | 38 | 1001.9 |
| 20260504221217 | 84 | 0 | 0.0 | 1.0 | 0.00 | 0.00 | 0.00 | 38 | 1002.0 |
| 20260504220714 | 83 | 340 | 1.0 | 2.0 | 0.00 | 0.00 | 0.00 | 40 | 1001.9 |
| 20260504220211 | 82 | 324 | 1.0 | 2.0 | 0.00 | 0.00 | 0.00 | 40 | 1001.9 |
| 20260504215708 | 82 | 331 | 0.0 | 0.0 | 0.00 | 0.00 | 0.00 | 39 | 1002.1 |
| 20260504215205 | 82 | 289 | 1.0 | 2.0 | 0.00 | 0.00 | 0.00 | 39 | 1001.9 |
| 20260504214700 | 82 | 8 | 0.0 | 1.0 | 0.00 | 0.00 | 0.00 | 39 | 1002.0 |
| 20260504214157 | 82 | 316 | 2.0 | 2.0 | 0.00 | 0.00 | 0.00 | 38 | 1002.3 |
| 20260504213654 | 82 | 326 | 1.0 | 2.0 | 0.00 | 0.00 | 0.00 | 38 | 1002.1 |
| 20260504213151 | 83 | 346 | 1.0 | 2.0 | 0.00 | 0.00 | 0.00 | 38 | 1002.2 |
| 20260504212647 | 83 | 328 | 1.0 | 1.0 | 0.00 | 0.00 | 0.00 | 36 | 1002.2 |
| 20260504212144 | 82 | 279 | 0.0 | 1.0 | 0.00 | 0.00 | 0.00 | 38 | 1002.0 |
| 20260504211641 | 82 | 345 | 0.0 | 0.0 | 0.00 | 0.00 | 0.00 | 40 | 1002.2 |
| 20260504211137 | 81 | 133 | 2.0 | 2.0 | 0.00 | 0.00 | 0.00 | 40 | 1002.4 |
| 20260504210636 | 81 | 40 | 1.0 | 2.0 | 0.00 | 0.00 | 0.00 | 39 | 1002.3 |
| 20260504210131 | 81 | 161 | 2.0 | 2.0 | 0.00 | 0.00 | 0.00 | 38 | 1002.3 |
| 20260504205629 | 82 | 301 | 1.0 | 2.0 | 0.00 | 0.00 | 0.00 | 39 | 1002.4 |
| 20260504205126 | 82 | 340 | 0.0 | 1.0 | 0.00 | 0.00 | 0.00 | 38 | 1002.5 |
| 20260504204625 | 84 | 311 | 2.0 | 3.0 | 0.00 | 0.00 | 0.00 | 39 | 1002.3 |
| 20260504204123 | 84 | 25 | 1.0 | 2.0 | 0.00 | 0.00 | 0.00 | 37 | 1002.4 |
| 20260504203622 | 84 | 277 | 2.0 | 2.0 | 0.00 | 0.00 | 0.00 | 38 | 1002.6 |
| 20260504203120 | 84 | 36 | 1.0 | 2.0 | 0.00 | 0.00 | 0.00 | 39 | 1002.5 |
| 20260504202619 | 84 | 264 | 2.0 | 3.0 | 0.00 | 0.00 | 0.00 | 38 | 1002.6 |
| 20260504202117 | 85 | 290 | 1.0 | 2.0 | 0.00 | 0.00 | 0.00 | 36 | 1002.4 |
| 20260504201613 | 86 | 334 | 1.0 | 2.0 | 0.00 | 0.00 | 0.00 | 37 | 1002.5 |
| 20260504201111 | 85 | 221 | 2.0 | 2.0 | 0.00 | 0.00 | 0.00 | 37 | 1002.3 |
| 20260504200608 | 85 | 175 | 2.0 | 4.0 | 0.00 | 0.00 | 0.00 | 36 | 1002.8 |
| 20260504200104 | 85 | 299 | 2.0 | 3.0 | 0.00 | 0.00 | 0.00 | 36 | 1002.6 |
| 20260504195600 | 85 | 170 | 3.0 | 3.0 | 0.00 | 0.00 | 0.00 | 37 | 1002.7 |
| 20260504195057 | 84 | 181 | 2.0 | 3.0 | 0.00 | 0.00 | 0.00 | 37 | 1002.5 |
| 20260504194554 | 84 | 264 | 1.0 | 1.0 | 0.00 | 0.00 | 0.00 | 38 | 1002.5 |
| 20260504194049 | 85 | 174 | 1.0 | 2.0 | 0.00 | 0.00 | 0.00 | 37 | 1002.6 |
| 20260504193546 | 85 | 161 | 2.0 | 3.0 | 0.00 | 0.00 | 0.00 | 38 | 1002.6 |
| 20260504193045 | 85 | 306 | 1.0 | 1.0 | 0.00 | 0.00 | 0.00 | 37 | 1002.8 |
| 20260504192543 | 85 | 277 | 2.0 | 2.0 | 0.00 | 0.00 | 0.00 | 38 | 1002.5 |
| 20260504192040 | 85 | 47 | 0.0 | 1.0 | 0.00 | 0.00 | 0.00 | 39 | 1002.6 |
| 20260504191538 | 85 | 340 | 3.0 | 4.0 | 0.00 | 0.00 | 0.00 | 37 | 1002.5 |
| 20260504191034 | 84 | 343 | 1.0 | 2.0 | 0.00 | 0.00 | 0.00 | 36 | 1002.6 |
| 20260504190531 | 84 | 356 | 0.0 | 0.0 | 0.00 | 0.00 | 0.00 | 37 | 1003.0 |
| 20260504190026 | 83 | 333 | 0.0 | 1.0 | 0.00 | 0.00 | 0.00 | 37 | 1002.9 |
| 20260504185524 | 83 | 115 | 2.0 | 2.0 | 0.00 | 0.00 | 0.00 | 38 | 1002.8 |
| 20260504185020 | 84 | 240 | 2.0 | 2.0 | 0.00 | 0.00 | 0.00 | 37 | 1002.8 |
| 20260504184515 | 83 | 313 | 1.0 | 1.0 | 0.00 | 0.00 | 0.00 | 39 | 1002.8 |
| 20260504184011 | 83 | 26 | 1.0 | 1.0 | 0.00 | 0.00 | 0.00 | 40 | 1002.9 |
| 20260504183509 | 83 | 311 | 1.0 | 1.0 | 0.00 | 0.00 | 0.00 | 37 | 1003.1 |
| 20260504183007 | 83 | 285 | 2.0 | 2.0 | 0.00 | 0.00 | 0.00 | 37 | 1003.1 |
| 20260504182503 | 82 | 325 | 0.0 | 1.0 | 0.00 | 0.00 | 0.00 | 37 | 1003.1 |
| 20260504182000 | 82 | 151 | 2.0 | 2.0 | 0.00 | 0.00 | 0.00 | 38 | 1003.0 |
| 20260504181457 | 82 | 280 | 1.0 | 2.0 | 0.00 | 0.00 | 0.00 | 38 | 1003.4 |
| 20260504180956 | 82 | 187 | 2.0 | 2.0 | 0.00 | 0.00 | 0.00 | 38 | 1003.3 |
| 20260504180455 | 82 | 165 | 2.0 | 3.0 | 0.00 | 0.00 | 0.00 | 38 | 1003.3 |
| 20260504175953 | 81 | 341 | 1.0 | 3.0 | 0.00 | 0.00 | 0.00 | 38 | 1003.5 |
| 20260504175449 | 81 | 301 | 3.0 | 3.0 | 0.00 | 0.00 | 0.00 | 37 | 1003.5 |
| 20260504174947 | 82 | 31 | 1.0 | 1.0 | 0.00 | 0.00 | 0.00 | 40 | 1003.6 |
| 20260504174444 | 82 | 249 | 2.0 | 2.0 | 0.00 | 0.00 | 0.00 | 38 | 1003.4 |
| 20260504173942 | 82 | 331 | 0.0 | 1.0 | 0.00 | 0.00 | 0.00 | 38 | 1003.4 |
| 20260504173437 | 80 | 312 | 1.0 | 2.0 | 0.00 | 0.00 | 0.00 | 40 | 1003.5 |
| 20260504172936 | 80 | 65 | 2.0 | 4.0 | 0.00 | 0.00 | 0.00 | 37 | 1003.6 |
| 20260504172431 | 80 | 76 | 1.0 | 1.0 | 0.00 | 0.00 | 0.00 | 38 | 1003.7 |
| 20260504171928 | 80 | 345 | 0.0 | 1.0 | 0.00 | 0.00 | 0.00 | 39 | 1003.6 |
| 20260504171425 | 80 | 291 | 3.0 | 3.0 | 0.00 | 0.00 | 0.00 | 39 | 1003.7 |
| 20260504170922 | 79 | 42 | 1.0 | 1.0 | 0.00 | 0.00 | 0.00 | 39 | 1003.8 |
| 20260504170418 | 79 | 324 | 2.0 | 2.0 | 0.00 | 0.00 | 0.00 | 39 | 1003.8 |
| 20260504160337 | 78 | 352 | 1.0 | 2.0 | 0.00 | 0.00 | 0.00 | 39 | 1003.7 |
| 20260504150802 | 73 | 180 | 1.0 | 2.0 | 0.00 | 0.00 | 0.00 | 46 | 1004.1 |
| 20260504150259 | 73 | 264 | 1.0 | 1.0 | 0.00 | 0.00 | 0.00 | 45 | 1003.9 |
| 20260504141229 | 67 | 346 | 0.0 | 1.0 | 0.00 | 0.00 | 0.00 | 52 | 1004.2 |
| 20260504140725 | 68 | 316 | 1.0 | 1.0 | 0.00 | 0.00 | 0.00 | 52 | 1004.3 |
| 20260504140220 | 68 | 269 | 2.0 | 3.0 | 0.00 | 0.00 | 0.00 | 51 | 1004.0 |
| 20260504130649 | 66 | 333 | 0.0 | 0.0 | 0.00 | 0.00 | 0.00 | 52 | 1003.9 |
| 20260504130145 | 66 | 321 | 1.0 | 1.0 | 0.00 | 0.00 | 0.00 | 52 | 1003.9 |
| 20260504120110 | 63 | 74 | 0.0 | 1.0 | 0.00 | 0.00 | 0.00 | 54 | 1004.1 |
| 20260504110537 | 64 | 341 | 0.0 | 0.0 | 0.00 | 0.00 | 0.00 | 52 | 1004.5 |
| 20260504100459 | 66 | 335 | 1.0 | 1.0 | 0.00 | 0.00 | 0.00 | 48 | 1004.4 |
| 20260504081852 | 66 | 301 | 0.0 | 1.0 | 0.00 | 0.00 | 0.00 | 48 | 1005.1 |
| 20260504081349 | 66 | 353 | 0.0 | 1.0 | 0.00 | 0.00 | 0.00 | 48 | 1005.1 |
| 20260504080844 | 66 | 46 | 1.0 | 1.0 | 0.00 | 0.00 | 0.00 | 48 | 1005.4 |
| 20260504080342 | 66 | 31 | 3.0 | 4.0 | 0.00 | 0.00 | 0.00 | 48 | 1005.3 |
| 20260504070309 | 63 | 12 | 0.0 | 0.0 | 0.00 | 0.00 | 0.00 | 52 | 1006.4 |
| 20260504060230 | 62 | 336 | 0.0 | 0.0 | 0.00 | 0.00 | 0.00 | 55 | 1007.0 |